Simultaneous Nadir Overpasses (SNOs) Predictions

Prediction of SNOs between GOES-16 and AQUA Satellite Orbit:

Table of predicted SNOs for the next 14.0 days since TLE Epoch: 5/15/2020
Index Date Time (GOES-16) GOES-16 Lat,Lon AQUA Lat,Lon Distance(km) Time Diff (sec)
1 05/17/2020 18:29:21 0.01, -75.21 0.42, -73.14 235.33 80
2 05/18/2020 06:50:36 -0.00, -75.21 0.68, -78.29 351.38 80
3 05/20/2020 06:38:25 -0.00, -75.23 0.03, -75.34 13.26 80
4 05/22/2020 06:23:34 -0.01, -75.25 -0.61, -72.39 325.36 80
5 05/22/2020 18:44:59 0.01, -75.26 -0.47, -77.59 263.57 80
6 05/24/2020 18:35:27 0.00, -75.29 0.12, -74.62 75.39 80
7 05/26/2020 18:23:16 0.00, -75.32 0.77, -71.67 414.53 80
8 05/27/2020 06:44:31 0.00, -75.32 0.33, -76.82 171.52 80
9 05/29/2020 06:29:40 0.01, -75.35 -0.32, -73.87 168.14 80
10 05/29/2020 18:51:04 -0.01, -75.36 -0.81, -79.06 420.87 80




NCC Satellite Simultaneous Nadir Overpasses (SNOs) Prediction Service
